Location: Lugrin
(46.4033°N, 6.6674°E)
Time: 01:46:54
(UTC+00:00)

Spot 2 Rocket - Pass Details

Date: 18 September 2020
Orbit: 758 x 771 km, 98.6° (Epoch: 29 October)

Event Time Altitude Azimuth Distance (km) Brightness Sun altitude
Exits shadow 19:48:06 31° 57° (ENE) 1,313 4.4 -22.3°
Drops below altitude 10° 19:52:11 10° 4° (N) 2,299 6.3 -22.9°
Sets 19:54:41 0° 355° (N) 3,229 7.2 -23.3°
